Location: Trébons-de-Luchon
(42.8036°N, 0.5656°E)
Time: 09:17:01
(UTC+01:00)

ISS - Visible Passes

Search period start: 17 February 2019 00:00
Search period end: 27 February 2019 00:00
Orbit: 403 x 411 km, 51.6° (Epoch: 17 February)

Date Brightness Start Highest point End Pass type
(mag) Time Alt. Az. Time Alt. Az. Time Alt. Az.
23 Feb -1.2 06:31:28 10° S 06:33:53 20° SE 06:36:20 10° E visible
24 Feb -0.7 05:41:50 10° SE 05:42:38 11° SE 05:43:25 10° ESE visible
25 Feb -2.9 06:24:44 15° SSW 06:27:12 46° SE 06:30:21 10° ENE visible
26 Feb -1.9 05:35:46 25° SE 05:35:48 25° SE 05:38:34 10° ENE visible
26 Feb -3.3 07:09:03 10° W 07:12:12 43° NNW 07:15:21 10° NE visible
